Manchester, United Kingdom

6:49 PM BST on July 23, 2016 (GMT +0100)
Manchester

Weather History for EGCC - March, 2013

Change the Weather History Date:

Saturday, March 30, 2013

  Actual Average Record
Temperature  
Mean Temperature 34 °F -  
Max Temperature 44 °F 53 °F 64 °F (2014)
Min Temperature 24 °F 40 °F 12 °F (2001)
Degree Days  
Heating Degree Days 31    
Moisture  
Dew Point 22 °F    
Average Humidity 63    
Maximum Humidity 86    
Minimum Humidity 34    
Precipitation  
Precipitation 0.00 in 0.07 in - ()
Sea Level Pressure  
Sea Level Pressure 29.94 in    
Wind  
Wind Speed 6 mph ()    
Max Wind Speed 13 mph    
Max Gust Speed -    
Visibility 6.2 miles    
Events      
Averages and records for this station are not official NWS values.
T = Trace of Precipitation, MM = Missing Value Source: Averaged Metar Reports

Daily Weather History Graph

Daily Weather History Graph

Search for Another Location

Airport or City:

Trip Planner

Search our weather history database for the weather conditions in past years. The results will help you decide how hot, cold, wet, or windy it might be!

Date:

Astronomy

Mar. 30, 2013 Rise Set
Actual Time 5:47 AM GMT 6:40 PM GMT
Civil Twilight 5:11 AM GMT 7:16 PM GMT
Nautical Twilight 4:29 AM GMT 7:59 PM GMT
Astronomical Twilight 3:43 AM GMT 8:45 PM GMT
Moon 11:06 PM GMT (3/30) 7:00 AM GMT (3/30)
Length of Visible Light 14h 04m
Length of Day
12h 53m
Waning Gibbous, 88% of the Moon is Illuminated
Mar 30
Waning Gibbous
Apr 3
Last Quarter
Apr 10
New
Apr 18
First Quarter
Apr 25
Full

Hourly Weather History & Observations

Time (GMT) Temp. Windchill Dew Point Humidity Pressure Visibility Wind Dir Wind Speed Gust Speed Precip Events Conditions
12:20 AM 28.4 °F 24.6 °F 23.0 °F 80% 29.89 in 6.2 mi Variable 3.5 mph - N/A   Partly Cloudy
12:50 AM 28.4 °F - 23.0 °F 80% 29.89 in 6.2 mi North 2.3 mph - N/A   Partly Cloudy
1:20 AM 28.4 °F 21.2 °F 23.0 °F 80% 29.89 in 6.2 mi NNE 6.9 mph - N/A   Partly Cloudy
1:50 AM 28.4 °F 22.2 °F 23.0 °F 80% 29.89 in - North 5.8 mph - N/A   Clear
2:20 AM 28.4 °F 23.3 °F 23.0 °F 80% 29.89 in - North 4.6 mph - N/A   Clear
2:50 AM 26.6 °F 20.0 °F 23.0 °F 86% 29.89 in - North 5.8 mph - N/A   Clear
3:20 AM 28.4 °F 22.2 °F 23.0 °F 80% 29.89 in - North 5.8 mph - N/A   Clear
4:20 AM 24.8 °F 17.9 °F 21.2 °F 86% 29.89 in 6.2 mi NNE 5.8 mph - N/A   Partly Cloudy
4:50 AM 26.6 °F 20.0 °F 21.2 °F 80% 29.89 in 6.2 mi NNE 5.8 mph - N/A   Partly Cloudy
5:20 AM 30.2 °F 25.4 °F 24.8 °F 80% 29.89 in 6.2 mi North 4.6 mph - N/A   Partly Cloudy
5:50 AM 28.4 °F 20.4 °F 23.0 °F 80% 29.89 in 6.2 mi NNE 8.1 mph - N/A   Partly Cloudy
6:20 AM 28.4 °F 22.2 °F 23.0 °F 80% 29.92 in 6.2 mi NE 5.8 mph - N/A   Partly Cloudy
6:50 AM 30.2 °F 22.6 °F 24.8 °F 80% 29.92 in 6.2 mi NNE 8.1 mph - N/A   Partly Cloudy
7:20 AM 32.0 °F 24.2 °F 24.8 °F 75% 29.92 in 6.2 mi NNE 9.2 mph - N/A   Partly Cloudy
7:50 AM 33.8 °F 27.0 °F 26.6 °F 75% 29.92 in 6.2 mi NNE 8.1 mph - N/A   Partly Cloudy
8:20 AM 35.6 °F 29.2 °F 26.6 °F 70% 29.92 in 6.2 mi NNE 8.1 mph - N/A   Partly Cloudy
8:50 AM 35.6 °F 30.7 °F 26.6 °F 70% 29.92 in 6.2 mi NE 5.8 mph - N/A   Partly Cloudy
9:20 AM 39.2 °F 32.5 °F 24.8 °F 56% 29.92 in 6.2 mi NNE 10.4 mph - N/A   Partly Cloudy
9:50 AM 39.2 °F 31.6 °F 19.4 °F 45% 29.92 in 6.2 mi ENE 12.7 mph - N/A   Partly Cloudy
10:20 AM 39.2 °F 33.0 °F 21.2 °F 49% 29.92 in 6.2 mi NE 9.2 mph - N/A   Partly Cloudy
10:50 AM 41.0 °F 34.7 °F 23.0 °F 49% 29.95 in 6.2 mi East 10.4 mph - N/A   Partly Cloudy
11:20 AM 39.2 °F 33.0 °F 19.4 °F 45% 29.95 in 6.2 mi East 9.2 mph - N/A   Scattered Clouds
11:50 AM 41.0 °F 35.2 °F 19.4 °F 42% 29.95 in 6.2 mi East 9.2 mph - N/A   Scattered Clouds
12:20 PM 42.8 °F 37.0 °F 17.6 °F 36% 29.95 in 6.2 mi ENE 10.4 mph - N/A   Scattered Clouds
12:50 PM 44.6 °F 38.4 °F 17.6 °F 34% 29.92 in 6.2 mi East 12.7 mph - N/A   Partly Cloudy
1:20 PM 42.8 °F 37.0 °F 17.6 °F 36% 29.92 in 6.2 mi East 10.4 mph - N/A   Partly Cloudy
1:50 PM 42.8 °F 37.0 °F 19.4 °F 39% 29.92 in 6.2 mi ESE 10.4 mph - N/A   Partly Cloudy
2:20 PM 42.8 °F 38.0 °F 19.4 °F 39% 29.92 in 6.2 mi East 8.1 mph - N/A   Partly Cloudy
2:50 PM 41.0 °F 34.7 °F 19.4 °F 42% 29.92 in 6.2 mi ENE 10.4 mph - N/A   Partly Cloudy
3:20 PM 42.8 °F 36.6 °F 21.2 °F 42% 29.92 in 6.2 mi East 11.5 mph - N/A   Scattered Clouds
3:50 PM 41.0 °F 34.3 °F 23.0 °F 49% 29.92 in 6.2 mi East 11.5 mph - N/A   Scattered Clouds
4:20 PM 39.2 °F 35.0 °F 21.2 °F 49% 29.95 in 6.2 mi East 5.8 mph - N/A   Scattered Clouds
4:50 PM 41.0 °F 34.7 °F 23.0 °F 49% 29.95 in 6.2 mi ENE 10.4 mph - N/A   Scattered Clouds
5:20 PM 39.2 °F 34.2 °F 21.2 °F 49% 29.95 in 6.2 mi East 6.9 mph - N/A   Partly Cloudy
5:50 PM 39.2 °F 32.5 °F 21.2 °F 49% 29.95 in 6.2 mi ENE 10.4 mph - N/A   Partly Cloudy
6:20 PM 37.4 °F 32.1 °F 21.2 °F 52% 29.98 in - East 6.9 mph - N/A   Clear
6:50 PM 35.6 °F 28.6 °F 21.2 °F 56% 29.98 in - ENE 9.2 mph - N/A   Clear
7:20 PM 35.6 °F 29.9 °F 21.2 °F 56% 29.98 in - East 6.9 mph - N/A   Clear
7:50 PM 33.8 °F 26.4 °F 23.0 °F 65% 29.98 in - East 9.2 mph - N/A   Clear
8:20 PM 32.0 °F 26.4 °F 23.0 °F 69% 29.98 in - East 5.8 mph - N/A   Clear
8:50 PM 32.0 °F 26.4 °F 23.0 °F 69% 30.01 in 6.2 mi East 5.8 mph - N/A   Partly Cloudy
9:20 PM 30.2 °F 23.4 °F 23.0 °F 75% 30.01 in 6.2 mi East 6.9 mph - N/A   Partly Cloudy
9:50 PM 30.2 °F 23.4 °F 23.0 °F 75% 30.01 in 6.2 mi East 6.9 mph - N/A   Partly Cloudy
10:20 PM 28.4 °F 22.2 °F 21.2 °F 74% 30.01 in - ENE 5.8 mph - N/A   Clear
10:50 PM 28.4 °F 20.4 °F 21.2 °F 74% 30.01 in - ENE 8.1 mph - N/A   Clear
11:20 PM 26.6 °F 19.1 °F 21.2 °F 80% 30.01 in - East 6.9 mph - N/A   Clear
11:50 PM 26.6 °F 20.0 °F 21.2 °F 80% 30.01 in - East 5.8 mph - N/A   Clear